Overview Statistics Trail Chart Weather Telemetry Raw packets
 

This is the latest recevied weather packets stored in our database for station/object OK1FET-5. If no packets are shown the sender has not sent any weather packets the latest 10 day(s).

<< 45 46 47 48 49 50 51 >>
Time Temp. Humidity Pressure Rain* Wind** Luminosity Snow
1787849713 26.67° C 46% 1017.5 hPa - - - -
1787849117 26.67° C 45% 1017.8 hPa - - - -
1787848521 27.22° C 45% 1017.8 hPa - - - -
1787847925 27.22° C 45% 1017.8 hPa - - - -
1787847330 27.22° C 45% 1018.1 hPa - - - -
1787846734 27.22° C 45% 1018.2 hPa - - - -
1787846138 27.78° C 44% 1018.2 hPa - - - -
1787844946 28.33° C 42% 1018.4 hPa - - - -
1787844351 27.78° C 43% 1018.4 hPa - - - -
1787843755 28.33° C 42% 1018.4 hPa - - - -
1787843159 28.89° C 42% 1018.4 hPa - - - -
1787842563 28.33° C 43% 1018.4 hPa - - - -
1787841967 28.89° C 41% 1018.5 hPa - - - -
1787841372 28.89° C 42% 1018.4 hPa - - - -
1787840776 28.89° C 42% 1018.6 hPa - - - -
1787840180 27.78° C 43% 1018.6 hPa - - - -
1787839584 27.78° C 43% 1018.7 hPa - - - -
1787838988 27.22° C 44% 1018.5 hPa - - - -
1787837797 27.22° C 43% 1018.9 hPa - - - -
1787837201 28.33° C 41% 1019.1 hPa - - - -
1787836605 27.78° C 42% 1019.1 hPa - - - -
1787835414 27.22° C 43% 1019.2 hPa - - - -
1787834818 28.89° C 41% 1019.4 hPa - - - -
1787834222 28.33° C 42% 1019.5 hPa - - - -
1787833626 27.78° C 42% 1019.5 hPa - - - -

* Rain since midnight (hover to see other rain measurements)
** Current wind speed in m/s (hover to see current wind gust speed)